TimeCST,TemperatureF,Dew PointF,Humidity,Sea Level PressureIn,VisibilityMPH,Wind Direction,Wind SpeedMPH,Gust SpeedMPH,PrecipitationIn,Events,Conditions,WindDirDegrees,DateUTC
12:15 AM,41.0,41.0,100,29.89,10.0,NNE,5.8,-,N/A,,Unknown,20,2012-12-19 06:15:00
12:35 AM,41.0,41.0,100,29.89,10.0,NNE,6.9,-,N/A,,Unknown,20,2012-12-19 06:35:00
12:55 AM,39.2,39.2,100,29.89,10.0,NNE,6.9,-,N/A,,Unknown,30,2012-12-19 06:55:00
1:15 AM,41.0,39.2,93,29.90,10.0,NNE,8.1,-,N/A,,Unknown,30,2012-12-19 07:15:00
1:55 AM,39.2,39.2,100,29.91,8.0,NE,5.8,-,N/A,,Unknown,50,2012-12-19 07:55:00
2:15 AM,41.0,39.2,93,29.91,8.0,NE,5.8,-,N/A,,Unknown,50,2012-12-19 08:15:00
2:35 AM,39.2,39.2,100,29.91,7.0,NE,10.4,-,N/A,,Unknown,50,2012-12-19 08:35:00
2:55 AM,39.2,39.2,100,29.90,7.0,ENE,8.1,-,N/A,,Unknown,60,2012-12-19 08:55:00
3:15 AM,41.0,39.2,93,29.90,7.0,ENE,5.8,-,N/A,,Unknown,60,2012-12-19 09:15:00
3:35 AM,41.0,39.2,93,29.91,7.0,ENE,5.8,-,N/A,,Unknown,60,2012-12-19 09:35:00
3:55 AM,39.2,39.2,100,29.91,7.0,ESE,6.9,-,N/A,,Unknown,110,2012-12-19 09:55:00
4:15 AM,39.2,39.2,100,29.91,5.0,ESE,5.8,-,N/A,,Mist,110,2012-12-19 10:15:00
4:35 AM,39.2,39.2,100,29.91,5.0,NE,3.5,-,N/A,,Mist,50,2012-12-19 10:35:00
4:55 AM,39.2,39.2,100,29.92,5.0,NNE,4.6,-,N/A,,Mist,30,2012-12-19 10:55:00
5:15 AM,39.2,39.2,100,29.92,5.0,NNE,8.1,-,N/A,,Mist,30,2012-12-19 11:15:00
5:35 AM,39.2,39.2,100,29.92,5.0,NNE,9.2,-,N/A,,Mist,20,2012-12-19 11:35:00
5:55 AM,39.2,39.2,100,29.93,5.0,NNE,8.1,-,N/A,,Mist,30,2012-12-19 11:55:00
6:15 AM,39.2,39.2,100,29.93,5.0,NNE,12.7,-,N/A,,Mist,30,2012-12-19 12:15:00
6:35 AM,39.2,39.2,100,29.92,4.0,NE,9.2,-,N/A,,Mist,50,2012-12-19 12:35:00
6:55 AM,41.0,41.0,100,29.93,4.0,ENE,8.1,-,N/A,,Mist,70,2012-12-19 12:55:00
7:15 AM,41.0,41.0,100,29.94,3.0,East,6.9,-,N/A,,Mist,90,2012-12-19 13:15:00
7:35 AM,39.2,39.2,100,29.94,2.5,ENE,4.6,-,N/A,,Mist,70,2012-12-19 13:35:00
7:55 AM,41.0,41.0,100,29.93,2.5,NE,8.1,-,N/A,,Mist,50,2012-12-19 13:55:00
8:15 AM,42.8,42.8,100,29.93,3.0,ENE,5.8,-,N/A,,Mist,60,2012-12-19 14:15:00
8:35 AM,44.6,44.6,100,29.93,5.0,ENE,8.1,-,N/A,,Mist,70,2012-12-19 14:35:00
8:55 AM,44.6,44.6,100,29.93,5.0,ENE,4.6,-,N/A,,Mist,70,2012-12-19 14:55:00
9:15 AM,46.4,44.6,93,29.93,6.0,ENE,4.6,-,N/A,,Mist,60,2012-12-19 15:15:00
9:35 AM,48.2,44.6,87,29.94,8.0,East,5.8,-,N/A,,Unknown,90,2012-12-19 15:35:00
9:55 AM,50.0,44.6,82,29.93,10.0,ESE,6.9,-,N/A,,Unknown,110,2012-12-19 15:55:00
10:15 AM,50.0,46.4,87,29.92,10.0,ESE,8.1,-,N/A,,Unknown,120,2012-12-19 16:15:00
10:35 AM,51.8,46.4,82,29.92,10.0,SE,4.6,-,N/A,,Unknown,140,2012-12-19 16:35:00
10:55 AM,53.6,48.2,82,29.91,10.0,SE,8.1,-,N/A,,Unknown,130,2012-12-19 16:55:00
11:15 AM,53.6,48.2,82,29.89,0.8,SE,8.1,-,N/A,,Haze,130,2012-12-19 17:15:00
11:35 AM,53.6,48.2,82,29.89,10.0,SE,6.9,-,N/A,,Overcast,130,2012-12-19 17:35:00
11:55 AM,53.6,48.2,82,29.88,10.0,SE,6.9,-,N/A,,Overcast,130,2012-12-19 17:55:00
12:15 PM,53.6,48.2,82,29.87,10.0,ESE,8.1,-,N/A,,Overcast,120,2012-12-19 18:15:00
12:35 PM,55.4,50.0,82,29.86,10.0,SE,8.1,-,N/A,,Overcast,130,2012-12-19 18:35:00
12:55 PM,55.4,50.0,82,29.85,10.0,SE,5.8,-,N/A,,Overcast,130,2012-12-19 18:55:00
1:15 PM,55.4,50.0,82,29.84,10.0,SE,6.9,-,N/A,,Overcast,130,2012-12-19 19:15:00
1:35 PM,57.2,51.8,82,29.83,10.0,SE,10.4,-,N/A,,Overcast,140,2012-12-19 19:35:00
1:55 PM,57.2,53.6,88,29.82,10.0,SE,10.4,-,N/A,,Overcast,130,2012-12-19 19:55:00
2:15 PM,57.2,53.6,88,29.81,10.0,SE,6.9,-,N/A,,Overcast,130,2012-12-19 20:15:00
2:35 PM,57.2,53.6,88,29.81,10.0,SE,4.6,-,N/A,,Overcast,130,2012-12-19 20:35:00
2:55 PM,59.0,53.6,82,29.81,10.0,SE,4.6,-,N/A,,Overcast,130,2012-12-19 20:55:00
3:15 PM,59.0,55.4,88,29.80,10.0,SE,6.9,-,N/A,,Mostly Cloudy,130,2012-12-19 21:15:00
3:35 PM,59.0,53.6,82,29.81,10.0,SSE,5.8,-,N/A,,Overcast,150,2012-12-19 21:35:00
3:55 PM,57.2,53.6,88,29.81,10.0,SE,6.9,-,N/A,,Overcast,130,2012-12-19 21:55:00
4:15 PM,57.2,53.6,88,29.79,10.0,ESE,9.2,-,N/A,,Overcast,110,2012-12-19 22:15:00
4:35 PM,55.4,53.6,94,29.79,10.0,ESE,6.9,-,N/A,,Mostly Cloudy,120,2012-12-19 22:35:00
4:55 PM,55.4,53.6,94,29.78,10.0,ESE,6.9,-,N/A,,Mostly Cloudy,120,2012-12-19 22:55:00
5:15 PM,55.4,53.6,94,29.78,10.0,ESE,10.4,-,N/A,,Mostly Cloudy,120,2012-12-19 23:15:00
5:35 PM,57.2,55.4,94,29.77,10.0,SE,13.8,-,N/A,,Mostly Cloudy,140,2012-12-19 23:35:00
5:55 PM,59.0,55.4,88,29.76,10.0,SSE,17.3,23.0,N/A,,Scattered Clouds,150,2012-12-19 23:55:00
6:15 PM,59.0,53.6,82,29.76,10.0,SSE,17.3,24.2,N/A,,Clear,150,2012-12-20 00:15:00
6:35 PM,60.8,51.8,72,29.75,10.0,SSE,15.0,-,N/A,,Mostly Cloudy,160,2012-12-20 00:35:00
6:55 PM,60.8,51.8,72,29.75,10.0,SSE,13.8,20.7,N/A,,Overcast,150,2012-12-20 00:55:00
7:15 PM,60.8,50.0,68,29.72,10.0,SSE,17.3,26.5,N/A,,Overcast,150,2012-12-20 01:15:00
7:35 PM,60.8,48.2,63,29.72,10.0,SSE,18.4,21.9,N/A,,Overcast,150,2012-12-20 01:35:00
7:55 PM,59.0,48.2,67,29.71,10.0,SSE,18.4,25.3,N/A,,Overcast,150,2012-12-20 01:55:00
8:15 PM,59.0,48.2,67,29.71,10.0,SSE,18.4,-,N/A,,Mostly Cloudy,150,2012-12-20 02:15:00
8:35 PM,59.0,46.4,63,29.70,10.0,SSE,18.4,24.2,N/A,,Overcast,150,2012-12-20 02:35:00
8:55 PM,59.0,46.4,63,29.68,10.0,SSE,18.4,23.0,N/A,,Overcast,150,2012-12-20 02:55:00
9:15 PM,59.0,46.4,63,29.67,10.0,SSE,16.1,24.2,N/A,,Overcast,150,2012-12-20 03:15:00
9:35 PM,59.0,46.4,63,29.65,10.0,SSE,16.1,25.3,N/A,,Overcast,150,2012-12-20 03:35:00
9:55 PM,60.8,46.4,59,29.64,10.0,SSE,18.4,28.8,N/A,,Overcast,160,2012-12-20 03:55:00
10:15 PM,60.8,46.4,59,29.62,10.0,SSE,19.6,25.3,N/A,,Mostly Cloudy,160,2012-12-20 04:15:00
10:55 PM,62.6,48.2,59,29.59,10.0,SSE,26.5,34.5,N/A,,Overcast,160,2012-12-20 04:55:00
11:15 PM,64.4,48.2,56,29.57,10.0,SSE,26.5,36.8,N/A,,Overcast,160,2012-12-20 05:15:00
11:35 PM,62.6,48.2,59,29.55,10.0,SSE,27.6,35.7,N/A,,Mostly Cloudy,160,2012-12-20 05:35:00
11:55 PM,62.6,50.0,63,29.54,10.0,SSE,26.5,40.3,N/A,,Overcast,160,2012-12-20 05:55:00